Location: Newark
(39.5222°N, 119.8081°W)
Time: 16:02:21
(UTC+00:00)

N. Korean satellite - Visible Passes

Search period start: 07 December 2019 00:00
Search period end: 17 December 2019 00:00
Orbit: 456 x 506 km, 97.2° (Epoch: 06 December)

Date Brightness Start Highest point End Pass type
(mag) Time Alt. Az. Time Alt. Az. Time Alt. Az.
07 Dec 6.9 01:11:07 10° S 01:14:50 73° W 01:18:33 10° NNW visible
07 Dec 6.7 14:11:54 10° N 14:15:20 46° WNW 14:18:41 10° SSW visible
08 Dec 6.7 13:46:23 10° NNE 13:49:56 74° E 13:53:24 10° S visible
09 Dec 9.6 01:54:40 10° SW 01:57:28 20° W 02:00:16 10° NW visible
09 Dec 8.4 13:21:16 10° NNE 13:24:27 31° E 13:27:35 10° SSE visible
10 Dec 8.1 01:28:24 10° S 01:31:56 42° W 01:35:28 10° NNW visible
10 Dec 9.7 12:56:46 10° NE 12:58:52 15° E 13:00:57 10° SE visible
10 Dec 7.4 14:29:16 10° NNW 14:32:18 27° WNW 14:35:17 10° SW visible
11 Dec 6.6 01:02:47 10° SSE 01:06:29 86° ENE 01:10:12 10° N visible
11 Dec 6.4 14:03:29 10° N 14:06:58 61° WNW 14:10:23 10° SSW visible
12 Dec 10.1 02:13:04 10° WSW 02:14:39 12° W 02:16:16 10° WNW visible
12 Dec 7.2 13:38:05 10° NNE 13:41:33 55° E 13:44:56 10° S visible
13 Dec 9.2 01:45:58 10° SSW 01:49:04 25° W 01:52:10 10° NW visible
13 Dec 8.9 13:13:06 10° NE 13:16:02 24° E 13:18:54 10° SSE visible
14 Dec 7.5 01:19:56 10° S 01:23:34 54° W 01:27:10 10° NNW visible
14 Dec 10.0 12:49:06 10° ENE 12:50:24 12° E 12:51:41 10° ESE visible
14 Dec 7.1 14:20:45 10° N 14:23:57 34° WNW 14:27:05 10° SW visible
15 Dec 6.3 13:55:05 10° N 13:58:35 81° WNW 14:02:00 10° SSW visible
16 Dec 9.8 02:03:58 10° SW 02:06:13 15° W 02:08:29 10° NW visible
16 Dec 7.8 13:29:47 10° NNE 13:33:07 41° E 13:36:23 10° S visible
